Regional Weather Roundup
Issued by NWS

Home | Current Version | Previous Version | Text Only | Print | Product List | Glossary Off
Versions: 1 2 3 4 5 6 7 8 9 10 11 12 13 14 15 16 17 18 19 20 21 22 23 24 25 26 27 28 29 30 31 32 33 34 35 36 37 38 39 40 41 42 43 44 45 46 47 48 49 50

000
ASUS43 KDTX 311810
RWRMI
MICHIGAN HOURLY REGIONAL WEATHER ROUNDUP
NATIONAL WEATHER SERVICE DETROIT/PONTIAC MI
200 PM EDT FRI OCT 31 2014

NOTE: "FAIR" INDICATES FEW OR NO CLOUDS BELOW 12,000 FEET WITH NO
SIGNIFICANT WEATHER AND/OR OBSTRUCTION TO VISIBILITY.

MIZ047>049-052>055-059>063-066>070-074>076-081>083-311900-
SOUTHEAST LOWER MICHIGAN

CITY           SKY/WX    TMP DP  RH WIND       PRES   REMARKS
ADRIAN         LGT RAIN  42  38  85 N12       29.90S
6HR MIN TEMP:  41; 6HR MAX TEMP:  42; 6HR PCP: TRACE;

ALMA           LGT RAIN  36  33  91 N15G28    30.03R
6HR MIN TEMP:  36; 6HR MAX TEMP:  41;

ANN ARBOR      CLOUDY    42  36  79 N15       29.88S
BAD AXE        LGT RAIN  38  37  98 N22G41    29.95R
6HR MIN TEMP:  38; 6HR MAX TEMP:  42;

DETROIT CITY   LGT RAIN  46  41  82 NW7       29.87F
6HR MIN TEMP:  45; 6HR MAX TEMP:  47; 6HR PCP:  0.08;

DETROIT        CLOUDY    43  38  82 NW13G21   29.87F
6HR MIN TEMP:  43; 6HR MAX TEMP:  44; 6HR PCP:  0.10;

FLINT          LGT RAIN  41  37  86 N16G32    29.93R FOG
6HR MIN TEMP:  41; 6HR MAX TEMP:  44; 6HR PCP:  0.11;

GROSSE ILE     DRIZZLE   45  39  81 NW10      29.86S
HILLSDALE      LGT RAIN  43  40  91 N12G17    29.89F
6HR MIN TEMP:  40; 6HR MAX TEMP:  44;

HOWELL         LGT RAIN  37  36  94 N9G20     29.91R

CITY           SKY/WX    TMP DP  RH WIND       PRES   REMARKS
JACKSON        LGT RAIN  42  40  92 N8        29.90F
6HR MIN TEMP:  39; 6HR MAX TEMP:  42; 6HR PCP:  0.09;

LAMBERTVILLE   CLOUDY    43  39  87 NW8       29.88F
LANSING        LGT RAIN  38  34  85 N23G36    29.97R
6HR MIN TEMP:  38; 6HR MAX TEMP:  42; 6HR PCP:  0.09;

LAPEER         NOT AVBL
MASON          LGT RAIN  38  36  91 N22G29    29.93R
MONROE         DRIZZLE   45  39  81 N10G17    29.86S
MT. CLEMENS    LGT RAIN  44  44  99 N12       29.84F FOG
6HR MIN TEMP:  44; 6HR MAX TEMP:  45; 6HR PCP:  0.13;

PONTIAC        RAIN      40  36  86 N13       29.88S
6HR MIN TEMP:  40; 6HR MAX TEMP:  42; 6HR PCP:  0.09;

PORT HOPE        N/A     41  37  86 N32G48    29.94R
6HR MIN TEMP:  41; 6HR MAX TEMP:  45; 6HR PCP:  0.17;

PORT HURON     LGT RAIN  43  41  93 N3        29.88S
TRI CITIES     LGT SNOW  36  32  85 N22G35    30.01R FOG
6HR MIN TEMP:  36; 6HR MAX TEMP:  42; 6HR PCP:  0.08;

YPSILANTI      CLOUDY    46  38  73 NW17      29.88F
6HR MIN TEMP:  45; 6HR MAX TEMP:  47; 6HR PCP:  0.11;

$$
MIZ043>046-050>051-056>058-064>065-071>073-077>080-311900-
SOUTHWEST LOWER MICHIGAN

CITY           SKY/WX    TMP DP  RH WIND       PRES   REMARKS
BATTLE CREEK   LGT SNOW  36  32  85 N21G29    29.96R FOG
6HR MIN TEMP:  37; 6HR MAX TEMP:  45; 6HR PCP:  0.03;

BENTON HARBOR  LGT RAIN  38  31  76 NE10G25   30.02R
6HR MIN TEMP:  38; 6HR MAX TEMP:  42; 6HR PCP:  0.04;

BIG RAPIDS     CLOUDY    34  32  92 N20G26    30.08R
6HR MIN TEMP:  33; 6HR MAX TEMP:  39;

COLDWATER      CLOUDY    44  39  81 N9        29.91F
6HR MIN TEMP:  40; 6HR MAX TEMP:  44;

HOLLAND        LGT SNOW  35  32  88 N13G25    30.06R VSB 3/4
6HR MIN TEMP:  35; 6HR MAX TEMP:  43; 6HR PCP:  0.07;

GRAND RAPIDS   FLURRIES  37  33  85 N24G35    30.02R
6HR MIN TEMP:  36; 6HR MAX TEMP:  42; 6HR PCP:  0.08;

KALAMAZOO      LGT SNOW  37  33  85 N24G30    29.97R FOG
6HR MIN TEMP:  37; 6HR MAX TEMP:  44; 6HR PCP:  0.04;

MARSHALL       RAIN      40  38  92 N6        29.92S
MUSKEGON       CLOUDY    38  29  70 N21G32    30.11R
6HR MIN TEMP:  35; 6HR MAX TEMP:  40; 6HR PCP:  0.03;

$$
MIZ016>042-311900-
NORTHERN LOWER MICHIGAN

CITY           SKY/WX    TMP DP  RH WIND       PRES   REMARKS
ALPENA         LGT SNOW  33  30  88 N22G31    30.12R FOG
6HR MIN TEMP:  32; 6HR MAX TEMP:  37; 6HR PCP:  0.11;

BEAVER ISLAND  CLOUDY    36  24  62 N18       30.26R
6HR MIN TEMP:  34; 6HR MAX TEMP:  36;

BELLAIRE       CLOUDY    35  25  67 N13G28    30.20R
6HR MIN TEMP:  33; 6HR MAX TEMP:  35;

CADILLAC       CLOUDY    30  26  85 N13G23    30.10R
CHARLEVOIX     CLOUDY    34  24  68 NE20G29   30.25S
6HR MIN TEMP:  32; 6HR MAX TEMP:  34;

FRANKFORT      CLOUDY    36  28  72 N15G28    30.20S
GAYLORD        CLOUDY    30  25  81 N12G22    30.14R
6HR MIN TEMP:  29; 6HR MAX TEMP:  31; 6HR PCP:  0.01;

GRAYLING       CLOUDY    33  27  80 N22G32    30.13R
6HR MIN TEMP:  33; 6HR MAX TEMP:  36;

HARBOR SPRINGS CLOUDY    33  25  74 N13G22    30.21S
HOUGHTON LAKE  CLOUDY    34  26  72 N22G39    30.09R
6HR MIN TEMP:  33; 6HR MAX TEMP:  38; 6HR PCP:  0.01;

MANISTEE       CLOUDY    34  28  80 N9        30.19R
OSCODA         LGT RAIN  35  33  94 N22G29    30.04S
PELLSTON       CLOUDY    33  26  75 N15       30.22S
6HR MIN TEMP:  31; 6HR MAX TEMP:  33; 6HR PCP:  0.02;

TRAVERSE CITY  CLOUDY    36  24  62 NE20G33   30.19R
6HR MIN TEMP:  36; 6HR MAX TEMP:  38; 6HR PCP: TRACE;

$$
MIZ007>008-015-311900-
EASTERN UPPER MICHIGAN

CITY           SKY/WX    TMP DP  RH WIND       PRES   REMARKS
KINROSS        CLOUDY    32  21  64 N22G29    30.23S
6HR MIN TEMP:  30; 6HR MAX TEMP:  34;

MACKINAC ISLAN CLOUDY    34  23  65 N21G33    30.22S
6HR MIN TEMP:  32; 6HR MAX TEMP:  35;

NEWBERRY       CLOUDY    32  21  65 N15G29    30.27F
S. S. MARIE    CLOUDY    33  19  56 N20G26    30.25S
6HR MIN TEMP:  30; 6HR MAX TEMP:  35; 6HR PCP: TRACE;

$$
MIZ004>006-011>014-085-311900-
CENTRAL UPPER MICHIGAN

CITY           SKY/WX    TMP DP  RH WIND       PRES   REMARKS
MANISTIQUE     CLOUDY    35  22  59 N21G30    30.29S
ESCANABA       CLOUDY    36  21  55 N14G24    30.33S
6HR MIN TEMP:  32; 6HR MAX TEMP:  36;

MENOMINEE      PTSUNNY   36  19  51 N17G33    30.33R
6HR MIN TEMP:  34; 6HR MAX TEMP:  37;

SAWYER-GWINN   LGT SNOW  32  23  69 N20G31    30.34S
$$
MIZ001>003-009>011-084-311900-
WESTERN UPPER MICHIGAN

CITY           SKY/WX    TMP DP  RH WIND       PRES   REMARKS
IRON MOUNTAIN  PTSUNNY   33  22  63 N16G23    30.36S
6HR MIN TEMP:  29; 6HR MAX TEMP:  36; 6HR PCP: TRACE;

HOUGHTON       PTSUNNY   33  21  61 N12       30.44S
6HR MIN TEMP:  29; 6HR MAX TEMP:  33; 6HR PCP:  0.01;

COPPER HARBOR    N/A     35  26  69 NE17G26   30.45R
6HR MIN TEMP:  33; 6HR MAX TEMP:  37;

IRONWOOD       CLOUDY    30  25  80 N9        30.45F
6HR MIN TEMP:  28; 6HR MAX TEMP:  30;

$$

ABBREVIATIONS USED IN REMARKS
   TC - TEMPERATURE IN CELSIUS
  WCI - WIND CHILL INDEX
   HX - HEAT INDEX
  VSB - VISIBILITY




USA.gov is the U.S. government's official web portal to all federal, state and local government web resources and services.